Wink, TX

11:05 AM CST on November 23, 2017 (GMT -0600)
Winkler County

Weather History for KINK - December, 2013

Change the Weather History Date:

Monday, December 16, 2013

  Actual Average Record
Temperature  
Mean Temperature 48 °F -  
Max Temperature 69 °F 58 °F 82 °F (2006)
Min Temperature 26 °F 25 °F 6 °F (1972)
Degree Days  
Heating Degree Days 18    
Moisture  
Dew Point 24 °F    
Average Humidity 52    
Maximum Humidity 85    
Minimum Humidity 17    
Precipitation  
Precipitation 0.00 in - - ()
Sea Level Pressure  
Sea Level Pressure 30.17 in    
Wind  
Wind Speed 7 mph (WNW)    
Max Wind Speed 9 mph    
Max Gust Speed -    
Visibility 10 miles    
Events      
Averages and records for this station are not official NWS values.
T = Trace of Precipitation, MM = Missing Value Source: NWS Daily Summary

Daily Weather History Graph

Daily Weather History Graph

Search for Another Location

Airport or City:

Trip Planner

Search our weather history database for the weather conditions in past years. The results will help you decide how hot, cold, wet, or windy it might be!

Date:

Astronomy

Dec. 16, 2013 Rise Set
Actual Time 7:46 AM CST 5:51 PM CST
Civil Twilight 7:19 AM CST 6:18 PM CST
Nautical Twilight 6:48 AM CST 6:48 PM CST
Astronomical Twilight 6:18 AM CST 7:18 PM CST
Moon 5:40 PM CST (12/16) 6:59 AM CST (12/16)
Length of Visible Light 10h 58m
Length of Day
10h 05m
Full, 100% of the Moon is Illuminated
Dec 16
Full
Dec 17
Full
Dec 25
Last Quarter
Jan 1
New
Jan 7
First Quarter

Hourly Weather History & Observations

Time (CST) Temp. Windchill Dew Point Humidity Pressure Visibility Wind Dir Wind Speed Gust Speed Precip Events Conditions
12:53 AM 30.9 °F 24.3 °F 24.1 °F 76% 30.21 in 10.0 mi North 6.9 mph - N/A   Clear
1:53 AM 32.0 °F 24.8 °F 24.1 °F 73% 30.20 in 10.0 mi NNW 8.1 mph - N/A   Clear
2:53 AM 30.0 °F 23.2 °F 24.1 °F 79% 30.20 in 10.0 mi North 6.9 mph - N/A   Clear
3:53 AM 28.0 °F 20.8 °F 23.0 °F 81% 30.20 in 10.0 mi North 6.9 mph - N/A   Clear
4:53 AM 28.0 °F 22.8 °F 23.0 °F 81% 30.19 in 10.0 mi North 4.6 mph - N/A   Clear
5:53 AM 27.0 °F 23.0 °F 23.0 °F 85% 30.20 in 10.0 mi NNW 3.5 mph - N/A   Clear
6:53 AM 27.0 °F 19.5 °F 23.0 °F 85% 30.22 in 10.0 mi SW 6.9 mph - N/A   Clear
7:53 AM 26.1 °F 20.5 °F 21.9 °F 84% 30.22 in 10.0 mi West 4.6 mph - N/A   Clear
8:53 AM 35.1 °F 32.2 °F 27.0 °F 72% 30.22 in 10.0 mi West 3.5 mph - N/A   Clear
9:53 AM 46.9 °F - 27.0 °F 46% 30.22 in 10.0 mi WSW 6.9 mph - N/A   Clear
10:53 AM 52.0 °F - 26.1 °F 37% 30.23 in 10.0 mi SW 6.9 mph - N/A   Clear
11:53 AM 55.0 °F - 25.0 °F 31% 30.21 in 10.0 mi WSW 8.1 mph - N/A   Clear
12:53 PM 60.1 °F - 24.1 °F 25% 30.17 in 10.0 mi WSW 8.1 mph - N/A   Clear
1:53 PM 64.0 °F - 25.0 °F 23% 30.13 in 10.0 mi WSW 9.2 mph - N/A   Clear
2:53 PM 66.9 °F - 21.9 °F 18% 30.10 in 10.0 mi WSW 8.1 mph - N/A   Clear
3:53 PM 69.1 °F - 23.0 °F 18% 30.09 in 10.0 mi West 6.9 mph - N/A   Clear
4:53 PM 68.0 °F - 21.0 °F 17% 30.09 in 10.0 mi SSW 4.6 mph - N/A   Clear
5:53 PM 62.1 °F - 23.0 °F 22% 30.11 in 10.0 mi Calm Calm - N/A   Clear
6:53 PM 55.9 °F - 23.0 °F 28% 30.14 in 10.0 mi NNE 3.5 mph - N/A   Clear
7:53 PM 48.9 °F - 25.0 °F 39% 30.16 in 10.0 mi SW 8.1 mph - N/A   Clear
8:53 PM 48.0 °F - 25.0 °F 41% 30.15 in 10.0 mi WSW 9.2 mph - N/A   Clear
9:53 PM 45.0 °F 40.6 °F 26.1 °F 48% 30.16 in 10.0 mi WNW 8.1 mph - N/A   Clear
10:53 PM 37.9 °F 32.1 °F 26.1 °F 62% 30.18 in 10.0 mi North 8.1 mph - N/A   Clear
11:53 PM 37.0 °F 32.4 °F 26.1 °F 65% 30.18 in 10.0 mi NNW 5.8 mph - N/A   Clear